New River MCAS, NC

4:38 AM EDT on May 27, 2017 (GMT -0400)
New River Marine Corps Air Station

Weather History for KNCA - January, 2013

Change the Weather History Date:

Thursday, January 3, 2013

  Actual Average Record
Temperature  
Mean Temperature 40 °F -  
Max Temperature 43 °F 55 °F 75 °F (2000)
Min Temperature 33 °F 34 °F 19 °F (2008)
Degree Days  
Heating Degree Days 26    
Moisture  
Dew Point 33 °F    
Average Humidity 73    
Maximum Humidity 85    
Minimum Humidity 66    
Precipitation  
Precipitation 0.05 in - - ()
Sea Level Pressure  
Sea Level Pressure 30.21 in    
Wind  
Wind Speed 7 mph (NNE)    
Max Wind Speed 10 mph    
Max Gust Speed -    
Visibility 9 miles    
Events Rain    
Averages and records for this station are not official NWS values.
T = Trace of Precipitation, MM = Missing Value Source: NWS Daily Summary

Daily Weather History Graph

Daily Weather History Graph

Search for Another Location

Airport or City:

Trip Planner

Search our weather history database for the weather conditions in past years. The results will help you decide how hot, cold, wet, or windy it might be!

Date:

Astronomy

Jan. 03, 2013 Rise Set
Actual Time 7:17 AM EST 5:11 PM EST
Civil Twilight 6:49 AM EST 5:39 PM EST
Nautical Twilight 6:18 AM EST 6:10 PM EST
Astronomical Twilight 5:47 AM EST 6:41 PM EST
Moon 11:27 PM EST (1/3) 10:43 AM EST (1/3)
Length of Visible Light 10h 50m
Length of Day
9h 54m
Waning Gibbous, 65% of the Moon is Illuminated
Jan 3
Waning Gibbous
Jan 4
Last Quarter
Jan 11
New
Jan 18
First Quarter
Jan 26
Full

Hourly Weather History & Observations

Time (EST) Temp. Windchill Dew Point Humidity Pressure Visibility Wind Dir Wind Speed Gust Speed Precip Events Conditions
12:21 AM 42.8 °F 38.0 °F 35.6 °F 76% 30.19 in 8.0 mi NE 8.1 mph - N/A   Scattered Clouds
12:56 AM 42.1 °F 37.1 °F 35.1 °F 76% 30.19 in 8.0 mi NE 8.1 mph - N/A   Clear
1:56 AM 42.1 °F 38.4 °F 35.1 °F 76% 30.18 in 8.0 mi NNE 5.8 mph - N/A   Clear
3:56 AM 41.0 °F 35.8 °F 33.1 °F 73% 30.17 in 10.0 mi NE 8.1 mph - N/A   Clear
4:56 AM 41.0 °F 34.7 °F 32.0 °F 70% 30.17 in 10.0 mi NE 10.4 mph - N/A   Clear
5:56 AM 41.0 °F 37.1 °F 32.0 °F 70% 30.19 in 10.0 mi NNE 5.8 mph - N/A   Mostly Cloudy
6:56 AM 41.0 °F 35.8 °F 33.1 °F 73% 30.22 in 10.0 mi NNE 8.1 mph - 0.00 in Rain Light Rain
7:56 AM 39.9 °F 35.8 °F 33.1 °F 77% 30.21 in 7.0 mi ENE 5.8 mph - 0.02 in Rain Light Rain
8:56 AM 39.9 °F 35.1 °F 34.0 °F 79% 30.21 in 6.0 mi East 6.9 mph - 0.03 in Rain Light Rain
10:56 AM 41.0 °F 35.2 °F 35.1 °F 79% 30.24 in 10.0 mi NNE 9.2 mph - 0.00 in Rain Light Rain
11:56 AM 42.1 °F 36.1 °F 34.0 °F 73% 30.20 in 10.0 mi NE 10.4 mph - 0.00 in   Overcast
12:56 PM 42.1 °F 37.1 °F 34.0 °F 73% 30.18 in 10.0 mi NNE 8.1 mph - N/A   Overcast
1:56 PM 42.1 °F 38.4 °F 33.1 °F 70% 30.17 in 10.0 mi NNE 5.8 mph - N/A   Overcast
2:56 PM 43.0 °F 40.3 °F 33.1 °F 68% 30.18 in 10.0 mi North 4.6 mph - N/A   Overcast
3:56 PM 43.0 °F 38.8 °F 33.1 °F 68% 30.20 in 10.0 mi NNW 6.9 mph - N/A   Overcast
4:56 PM 43.0 °F 37.2 °F 33.1 °F 68% 30.20 in 10.0 mi North 10.4 mph - N/A   Overcast
5:41 PM 42.8 °F 38.0 °F 32.0 °F 66% 30.21 in 10.0 mi North 8.1 mph - N/A   Overcast
5:56 PM 42.1 °F 37.7 °F 32.0 °F 67% 30.23 in 10.0 mi NNW 6.9 mph - N/A   Overcast
6:56 PM 42.1 °F 38.4 °F 32.0 °F 67% 30.25 in 10.0 mi North 5.8 mph - N/A   Overcast
7:56 PM 42.1 °F 38.4 °F 32.0 °F 67% 30.26 in 10.0 mi North 5.8 mph - N/A   Clear
8:56 PM 41.0 °F 38.0 °F 32.0 °F 70% 30.26 in 10.0 mi North 4.6 mph - N/A   Clear
9:56 PM 39.0 °F - 30.9 °F 73% 30.27 in 10.0 mi Calm Calm - N/A   Clear
10:56 PM 36.0 °F - 30.0 °F 79% 30.28 in 10.0 mi Calm Calm - N/A   Clear
11:56 PM 33.1 °F - 28.9 °F 85% 30.28 in 9.0 mi Calm Calm - N/A   Clear